Probability
3 3 3 3 3 3 4 6 6 4 3 4 5 6 5 4 4 6 7 7 6 5 5 5 4 3 3 3 3 3 3 3 3 3 3 3 3 3 3 2 1 1 0
3 3 3 3 3 3 4 5 5 4 3 3 4 5 5 5 4 5 6 5 5 5 5 4 3 3 3 3 3 3 3 3 3 3 2 2 3 3 2 1 0 0 0
3 3 3 3 3 3 3 4 4 3 3 3 3 4 4 5 4 4 4 4 4 4 4 4 3 3 3 3 3 3 3 3 2 1 1 1 2 2 1 0 0 0 0
2 3 3 3 3 3 3 3 3 3 3 3 3 3 3 4 3 3 3 3 3 4 4 3 3 3 3 3 3 3 3 3 1 0 0 0 1 1 0 0 0 0 0
3 3 3 3 3 3 3 3 4 4 4 4 3 3 3 3 3 3 3 3 3 3 3 3 3 3 3 3 3 3 3 2 1 0 0 0 0 0 0 0 0 0 0
3 3 4 4 3 3 3 4 5 6 6 5 4 3 3 3 3 3 3 3 3 3 3 3 3 3 3 3 2 2 2 2 1 0 0 0 0 0 0 0 0 0 0
3 4 4 4 4 3 3 4 5 6 6 5 4 3 3 3 3 3 3 3 3 3 3 3 3 3 2 1 1 1 1 1 0 0 0 0 0 0 0 0 0 0 0
3 3 4 4 3 3 3 3 4 4 4 4 3 3 3 3 3 3 3 3 3 3 3 3 2 2 1 1 0 0 1 1 0 0 0 0 0 0 0 0 0 0 0
1 2 3 3 3 3 3 3 3 3 3 3 4 4 3 3 3 3 3 3 3 3 3 2 1 0 0 0 0 0 1 2 1 0 0 0 0 0 0 0 0 0 0
0 1 1 2 3 3 3 3 3 3 3 4 5 5 4 3 3 3 3 3 3 2 1 1 0 0 0 0 0 0 1 1 1 0 0 0 0 0 0 0 0 0 0
0 0 0 1 1 2 2 2 2 3 3 4 5 4 3 2 2 2 2 2 1 1 0 0 0 0 0 0 0 0 0 0 0 0 0 0 0 0 0 0 0 0 0
0 0 1 1 1 1 1 1 1 1 3 3 3 3 1 1 1 1 1 1 0 0 0 0 0 0 0 0 0 0 0 0 0 0 0 0 0 0 0 0 0 0 0
0 0 1 2 1 0 0 0 0 1 3 3 3 2 2 1 1 0 0 0 0 0 0 0 0 0 0 0 0 0 0 0 0 0 0 0 1 1 0 0 0 0 0
1 1 2 3 2 0 0 0 1 2 3 3 3 3 2 2 2 1 0 0 0 0 0 0 0 0 0 0 0 0 0 0 0 0 0 1 2 3 2 1 1 1 1
4 4 4 5 4 1 0 1 2 3 3 3 3 3 3 3 3 2 1 0 0 0 0 0 0 0 0 0 0 0 0 0 0 0 0 1 3 5 6 5 4 3 3
7 6 6 7 6 3 3 4 4 4 3 3 3 3 3 3 3 3 2 1 0 0 0 0 0 0 0 0 0 0 0 0 0 0 0 1 4 7 10 11 9 7 5
8 7 6 6 6 5 5 6 5 4 4 3 3 3 4 5 4 4 3 2 1 0 0 0 0 0 0 0 0 0 0 0 0 0 0 1 3 6 10 12 11 9 8
8 7 4 2 3 4 5 5 4 4 3 3 3 4 5 6 6 4 3 2 1 0 0 0 0 0 0 0 0 0 0 0 0 0 0 0 1 3 6 9 10 10 10
6 5 2 1 3 3 4 3 3 3 3 3 3 3 5 6 5 4 4 3 1 0 0 0 0 0 0 0 0 0 0 0 0 0 0 0 0 1 2 5 8 9 10
5 4 3 3 4 4 4 4 4 3 3 2 2 2 4 5 5 4 4 3 1 1 1 0 0 0 0 0 0 0 0 0 0 0 0 0 0 0 0 2 4 6 7
6 5 4 5 7 7 7 6 5 4 2 1 1 2 4 5 4 3 3 3 3 3 3 1 1 0 0 0 0 0 0 0 0 0 0 0 0 0 0 0 1 2 4
11 9 8 8 8 9 8 8 7 5 3 2 1 1 3 4 5 4 3 3 4 4 4 3 2 1 1 0 0 0 0 0 0 0 0 0 0 0 0 0 0 0 1
16 15 14 12 11 11 11 11 11 9 6 3 2 2 3 4 5 5 4 3 3 4 4 3 3 3 2 1 0 0 0 0 0 0 0 0 0 0 0 0 0 0 0
21 21 19 17 17 16 15 15 14 12 9 6 4 4 3 4 4 4 3 3 3 3 3 3 3 3 2 1 0 0 0 0 0 0 0 0 0 0 0 0 1 1 1
25 24 21 21 20 19 16 15 16 13 10 8 6 5 3 3 3 3 3 3 3 3 3 3 3 3 3 1 0 0 0 0 0 0 0 0 0 0 0 0 1 1 1
27 25 22 22 20 18 16 16 16 13 9 8 6 5 3 2 2 3 3 3 3 3 3 3 3 3 3 2 1 0 0 0 0 0 0 0 0 0 0 0 0 1 2
Wind_Speed
2 3 10 12 13 14 14 15 15 16 16 16 16 16 17 17 16 16 16 16 16 15 16 16 16 16 16 16 16 17 17 17 17 17 17 17 16 16 17 17 16 12 17
6 5 11 12 13 14 14 14 15 15 15 15 15 15 15 16 16 15 15 15 15 16 15 15 16 16 16 15 16 16 16 16 16 16 16 15 16 16 16 16 15 10 16
8 6 9 12 13 13 13 13 14 14 15 15 14 14 14 15 15 15 15 15 15 15 15 15 15 15 14 14 15 15 15 15 15 15 14 7 10 15 15 16 16 16 15
9 6 8 12 13 13 13 13 13 13 14 14 14 14 14 14 14 14 14 14 14 14 14 14 14 14 14 13 13 13 13 13 14 13 6 5 7 14 15 15 15 15 14
7 6 8 13 13 13 12 12 12 12 13 13 12 13 13 13 13 14 14 13 13 14 14 13 13 13 12 12 12 11 11 11 12 9 5 5 5 12 14 15 14 14 14
7 5 8 13 13 12 12 11 11 12 12 12 12 12 12 13 13 14 13 13 13 13 13 12 12 12 11 10 10 9 9 10 9 5 6 5 4 11 14 14 14 13 13
7 5 7 12 12 12 11 11 11 11 11 11 11 11 11 11 12 12 12 12 11 11 11 11 11 10 9 9 8 7 7 8 6 5 5 5 5 11 13 13 13 12 12
10 6 6 12 12 11 11 11 10 10 10 10 10 10 10 10 10 10 11 10 10 10 10 9 9 8 7 7 6 6 6 6 7 7 5 4 8 11 12 12 12 12 11
9 7 5 5 7 10 10 10 10 9 9 9 8 8 9 9 9 9 9 9 9 9 8 8 7 7 6 5 4 4 5 7 5 4 6 4 9 12 13 12 12 11 11
7 6 5 4 4 4 5 9 9 9 8 8 7 7 7 7 7 7 6 7 8 7 7 6 6 5 4 3 3 3 4 5 3 4 3 5 11 12 13 12 12 11 11
7 5 5 5 4 4 4 7 7 8 7 6 5 6 4 2 2 2 4 6 6 6 6 5 4 3 2 2 2 2 2 2 3 3 3 9 12 13 12 12 12 12 11
9 7 6 6 5 4 4 3 2 3 3 2 2 2 1 1 1 3 4 5 5 5 4 4 3 3 2 0 1 1 1 3 2 3 4 11 13 13 12 12 12 11 11
9 9 7 6 6 5 3 3 1 1 2 2 3 3 2 2 1 1 1 2 2 3 2 2 2 1 1 1 1 1 2 2 2 2 5 12 13 13 13 12 12 12 11
8 8 7 6 5 5 4 3 3 2 2 2 3 3 3 2 2 2 2 2 2 1 2 2 1 2 2 2 3 3 3 3 3 2 5 13 14 14 14 14 13 13 12
7 7 7 7 6 4 3 2 3 3 3 3 2 3 3 3 3 2 2 2 3 2 2 2 2 2 2 3 3 3 3 4 4 4 4 13 14 14 14 14 14 14 14
8 7 6 7 6 5 3 2 2 2 2 2 2 3 3 3 2 2 2 2 2 3 3 3 3 3 2 2 3 3 4 4 5 5 4 8 14 14 14 15 15 15 15
8 7 7 6 5 5 4 3 2 1 1 2 1 2 3 3 3 2 2 2 2 2 3 2 2 1 2 2 2 3 2 3 4 5 5 4 6 11 14 14 14 15 15
8 8 6 6 5 4 3 2 2 1 1 1 1 1 2 2 2 2 1 2 2 1 1 1 1 1 1 1 1 2 1 2 3 4 4 4 4 5 10 14 14 14 15
9 8 6 5 6 4 4 2 2 1 1 1 1 1 1 1 2 1 1 1 1 1 1 1 1 1 1 2 2 2 1 2 3 4 4 5 5 4 4 8 12 11 12
9 8 7 6 5 4 3 2 1 0 0 0 1 1 1 1 1 1 1 1 1 1 0 0 1 1 2 2 2 1 1 2 2 2 3 3 3 4 4 4 4 5 8
8 7 7 6 5 4 2 2 1 1 0 0 1 1 2 1 1 1 0 0 1 1 1 1 1 1 1 1 0 1 2 1 1 1 2 2 2 3 3 3 2 2 3
9 8 8 7 6 5 3 2 2 2 1 1 0 0 1 1 1 1 1 0 0 1 1 1 1 1 1 1 2 1 1 3 2 1 1 2 2 2 2 3 2 3 2
9 9 9 8 6 5 4 2 1 1 1 1 1 0 1 1 1 1 1 1 1 1 1 2 2 2 2 1 2 3 2 2 1 2 1 1 1 1 1 2 2 2 3
10 9 8 8 7 5 5 4 3 2 2 2 1 1 1 1 1 1 1 1 1 1 1 2 1 2 2 1 1 1 2 3 2 1 2 1 0 1 1 1 1 2 1
10 9 8 7 6 5 5 5 4 3 2 1 1 1 0 1 1 1 0 1 1 1 1 1 1 1 1 2 1 1 1 1 2 2 1 1 2 1 1 1 0 0 0
8 8 8 7 6 5 5 5 5 4 3 2 1 1 0 1 2 1 0 0 1 1 1 1 1 0 1 1 1 1 2 2 2 2 2 1 0 1 2 2 2 1 1
Wind_Direction
113 110 104 99 95 91 89 86 85 84 84 85 86 87 89 91 93 94 97 101 102 103 104 104 105 105 106 107 108 108 108 109 108 108 108 108 110 112 112 112 112 112 115
138 117 107 103 100 97 94 92 90 89 89 88 89 89 90 91 93 94 96 98 103 105 105 105 105 105 105 106 108 109 109 109 109 109 108 107 109 113 114 114 114 119 119
123 115 110 108 106 104 101 98 96 94 94 92 92 92 92 95 94 95 97 100 102 105 105 105 106 106 107 107 108 110 110 110 109 107 103 97 105 112 115 117 118 119 120
124 118 115 113 110 107 105 103 101 99 98 97 96 96 96 98 97 97 99 102 104 106 108 108 108 107 107 107 109 111 112 113 114 111 99 98 107 115 117 119 120 122 123
118 118 123 117 114 112 110 108 106 104 102 101 99 99 100 101 101 101 103 106 106 108 109 109 108 109 109 109 109 111 111 111 114 107 101 96 103 121 122 123 124 125 125
122 123 127 122 119 117 115 114 111 109 107 105 104 102 102 103 105 106 106 108 108 109 110 110 110 110 110 109 111 112 113 111 106 105 109 113 117 128 127 127 128 128 129
131 130 130 126 124 121 119 117 116 114 113 111 109 107 106 106 108 110 111 112 112 112 113 114 115 114 113 113 113 112 114 112 111 114 121 125 132 133 132 132 132 133 134
138 135 133 132 129 126 125 123 121 119 118 116 113 113 113 112 112 114 115 117 118 119 119 119 119 120 119 116 110 106 115 116 111 125 128 134 143 140 139 138 138 139 140
138 137 133 135 132 134 134 132 130 127 124 124 122 121 121 120 119 120 121 122 124 126 127 127 127 125 123 122 117 107 116 122 113 129 143 145 152 149 146 146 147 146 146
140 146 145 141 137 136 139 144 142 140 138 137 137 134 130 126 126 129 130 133 135 139 141 142 142 143 140 142 139 129 125 122 122 142 147 159 160 157 154 154 156 156 156
150 159 158 157 156 155 158 156 152 152 154 157 155 154 140 108 111 133 149 148 149 152 156 162 167 175 178 188 186 159 141 139 141 149 164 169 169 167 164 164 164 165 166
165 175 172 172 173 174 171 151 162 170 168 176 177 167 143 154 188 174 179 178 172 172 180 194 212 227 220 235 257 237 167 162 155 164 176 175 175 174 172 172 171 172 173
167 170 170 173 173 174 167 159 176 181 178 189 189 177 173 172 195 201 185 195 197 200 212 230 242 243 234 231 237 217 190 176 172 181 182 181 181 180 180 180 180 180 180
157 162 164 161 159 164 157 165 171 180 187 191 194 178 162 161 184 190 199 205 201 205 214 229 232 233 238 239 229 218 198 186 180 177 186 185 185 186 187 187 188 189 189
148 152 156 152 149 147 144 168 159 174 182 185 179 180 171 164 173 184 205 205 208 204 206 219 222 229 238 242 228 209 203 188 179 176 187 190 190 193 195 194 195 196 197
152 154 153 148 150 144 144 155 154 164 167 164 171 174 166 165 172 175 189 201 206 199 200 205 208 211 227 233 241 222 201 184 184 181 187 196 198 199 203 202 202 202 203
158 158 158 156 150 142 144 151 147 168 156 155 174 171 162 168 172 169 176 206 217 204 194 199 213 210 231 233 238 235 208 191 184 191 187 192 202 208 209 210 208 207 207
156 158 165 158 146 145 146 143 138 160 158 164 165 166 170 180 177 166 182 225 229 197 180 195 206 200 241 238 242 248 219 194 194 197 196 199 204 212 217 217 215 212 211
159 157 158 149 154 160 159 156 151 168 177 177 153 158 183 182 172 169 198 233 202 152 176 206 183 191 219 239 243 242 228 214 214 211 206 206 206 209 210 220 218 215 216
160 158 156 151 160 162 155 145 122 96 239 157 155 172 175 185 180 166 195 213 165 137 161 192 210 224 218 227 256 267 250 237 216 213 210 205 206 205 201 207 208 216 217
159 160 160 155 166 160 148 154 160 191 208 168 172 175 178 185 185 159 184 174 177 174 218 215 214 237 250 197 129 323 327 319 252 221 199 175 199 213 192 192 194 200 223
171 170 165 163 172 174 171 172 167 165 173 169 173 194 211 209 200 173 174 202 224 205 251 247 212 204 249 183 161 142 333 346 351 282 212 178 200 216 191 193 191 197 214
176 176 175 174 175 179 171 144 120 77 48 43 35 294 278 228 222 221 203 194 227 210 237 254 219 196 223 253 184 163 168 221 290 332 320 214 178 164 181 179 175 208 211
186 180 174 175 176 176 163 154 155 155 168 192 200 223 286 258 238 244 212 209 221 224 248 261 230 202 184 226 259 215 192 173 170 277 336 350 26 135 157 150 195 208 201
180 175 174 170 172 170 163 165 160 160 168 162 148 114 341 324 309 292 277 266 259 247 250 275 292 207 184 197 210 221 229 206 178 173 247 331 13 37 69 87 145 150 135
170 169 168 167 172 169 163 161 161 160 154 140 128 124 354 323 314 331 7 296 284 290 272 267 288 257 214 211 213 200 189 188 195 178 195 215 27 10 42 48 52 47 68